Location: Newark
(13.0000°N, 151.6000°E)
Time: 13:58:26
(UTC+00:00)

N. Korean satellite - Visible Passes

Search period start: 07 April 2020 00:00
Search period end: 17 April 2020 00:00
Orbit: 454 x 507 km, 97.2° (Epoch: 06 April)

Date Brightness Start Highest point End Pass type
(mag) Time Alt. Az. Time Alt. Az. Time Alt. Az.
07 Apr 9.9 18:32:07 10° E 18:33:14 11° E 18:34:21 10° ESE visible
09 Apr 7.1 19:11:57 10° NNE 19:15:19 59° E 19:18:43 10° S visible
10 Apr 9.2 18:47:04 10° NE 18:49:44 21° E 18:52:24 10° SSE visible
13 Apr 8.0 19:02:57 10° NNE 19:06:12 40° E 19:09:29 10° S visible
14 Apr 9.6 18:38:29 10° ENE 18:40:36 15° E 18:42:44 10° SE visible
